Provincetown, MA

4:34 AM EDT on October 01, 2016 (GMT -0400)
Provincetown Municipal

Weather History for KPVC - September, 2012

Change the Weather History Date:

Saturday, September 8, 2012

  Actual Average Record
Temperature  
Mean Temperature 74 °F -  
Max Temperature 80 °F 70 °F 89 °F (2015)
Min Temperature 69 °F 58 °F 51 °F (2014)
Cooling Degree Days 10    
Growing Degree Days 24 (Base 50)    
Moisture  
Dew Point 70 °F    
Average Humidity 88    
Maximum Humidity 100    
Minimum Humidity 70    
Precipitation  
Precipitation 0.10 in - - ()
Sea Level Pressure  
Sea Level Pressure 29.81 in    
Wind  
Wind Speed 12 mph (South)    
Max Wind Speed 21 mph    
Max Gust Speed 28 mph    
Visibility 10 miles    
Events      
Averages and records for this station are not official NWS values.
T = Trace of Precipitation, MM = Missing Value Source: NWS Daily Summary

Daily Weather History Graph

Daily Weather History Graph

Search for Another Location

Airport or City:

Trip Planner

Search our weather history database for the weather conditions in past years. The results will help you decide how hot, cold, wet, or windy it might be!

Date:

Astronomy

Sep. 08, 2012 Rise Set
Actual Time 6:14 AM EDT 7:01 PM EDT
Civil Twilight 5:45 AM EDT 7:30 PM EDT
Nautical Twilight 5:12 AM EDT 8:03 PM EDT
Astronomical Twilight 4:37 AM EDT 8:38 PM EDT
Moon 11:37 PM EDT (9/8) 2:00 PM EDT (9/8)
Length of Visible Light 13h 44m
Length of Day
12h 47m
Waning Gibbous, 49% of the Moon is Illuminated
Sep 8
Waning Gibbous
Sep 15
New
Sep 22
First Quarter
Sep 29
Full
Oct 8
Last Quarter

Hourly Weather History & Observations

Time (EDT) Temp. Heat Index Dew Point Humidity Pressure Visibility Wind Dir Wind Speed Gust Speed Precip Events Conditions
12:35 AM 71.6 °F - 69.8 °F 94% 29.90 in 10.0 mi South 10.4 mph - N/A   Overcast
12:55 AM 71.6 °F - 69.8 °F 94% 29.89 in 10.0 mi South 10.4 mph - N/A   Mostly Cloudy
1:15 AM 71.6 °F - 69.8 °F 94% 29.90 in 10.0 mi South 8.1 mph - N/A   Mostly Cloudy
1:35 AM 71.6 °F - 69.8 °F 94% 29.89 in 10.0 mi South 9.2 mph - N/A   Overcast
1:55 AM 71.6 °F - 69.8 °F 94% 29.90 in 10.0 mi South 9.2 mph - N/A   Overcast
2:15 AM 71.6 °F - 69.8 °F 94% 29.91 in 10.0 mi SSW 9.2 mph - N/A   Overcast
2:35 AM 71.6 °F - 69.8 °F 94% 29.93 in 10.0 mi SSW 8.1 mph - N/A   Overcast
2:55 AM 71.6 °F - 69.8 °F 94% 29.93 in 10.0 mi SW 8.1 mph - N/A   Overcast
3:15 AM 71.6 °F - 69.8 °F 94% 29.92 in 10.0 mi SSW 8.1 mph - N/A   Overcast
3:35 AM 69.8 °F - 68.0 °F 94% 29.92 in 10.0 mi SSW 6.9 mph - N/A   Mostly Cloudy
3:55 AM 69.8 °F - 68.0 °F 94% 29.92 in 10.0 mi SSW 6.9 mph - N/A   Partly Cloudy
4:35 AM 69.8 °F - 69.8 °F 100% 29.91 in 10.0 mi South 8.1 mph - N/A   Mostly Cloudy
4:55 AM 69.8 °F - 69.8 °F 100% 29.90 in 10.0 mi South 8.1 mph - N/A   Clear
5:15 AM 71.6 °F - 69.8 °F 94% 29.89 in 10.0 mi South 10.4 mph - N/A   Partly Cloudy
5:35 AM 71.6 °F - 69.8 °F 94% 29.89 in 10.0 mi South 9.2 mph - N/A   Mostly Cloudy
5:55 AM 71.6 °F - 69.8 °F 94% 29.89 in 10.0 mi South 11.5 mph 16.1 mph N/A   Overcast
6:15 AM 71.6 °F - 69.8 °F 94% 29.90 in 10.0 mi South 11.5 mph - N/A   Overcast
6:35 AM 71.6 °F - 69.8 °F 94% 29.90 in 10.0 mi South 11.5 mph - N/A   Overcast
7:15 AM 71.6 °F - 69.8 °F 94% 29.89 in 10.0 mi South 12.7 mph - N/A   Mostly Cloudy
7:35 AM 71.6 °F - 69.8 °F 94% 29.89 in 10.0 mi South 11.5 mph - N/A   Mostly Cloudy
7:55 AM 73.4 °F - 69.8 °F 88% 29.89 in 10.0 mi South 13.8 mph 19.6 mph N/A   Partly Cloudy
8:15 AM 73.4 °F - 69.8 °F 88% 29.89 in 10.0 mi South 13.8 mph 20.7 mph N/A   Clear
8:35 AM 73.4 °F - 69.8 °F 88% 29.88 in 10.0 mi South 13.8 mph 19.6 mph N/A   Clear
8:55 AM 75.2 °F - 69.8 °F 83% 29.88 in 10.0 mi South 13.8 mph 19.6 mph N/A   Clear
9:35 AM 75.2 °F - 69.8 °F 83% 29.87 in 10.0 mi South 12.7 mph 18.4 mph N/A   Clear
9:55 AM 77.0 °F - 69.8 °F 78% 29.87 in 10.0 mi South 13.8 mph 21.9 mph N/A   Scattered Clouds
10:15 AM 78.8 °F - 71.6 °F 78% 29.86 in 10.0 mi South 15.0 mph 20.7 mph N/A   Scattered Clouds
10:35 AM 77.0 °F - 69.8 °F 78% 29.86 in 10.0 mi South 13.8 mph 24.2 mph N/A   Clear
10:55 AM 78.8 °F - 69.8 °F 74% 29.85 in 10.0 mi South 20.7 mph 25.3 mph N/A   Clear
11:15 AM 78.8 °F - 69.8 °F 74% 29.84 in 10.0 mi South 15.0 mph 20.7 mph N/A   Clear
11:35 AM 78.8 °F - 69.8 °F 74% 29.84 in 10.0 mi South 16.1 mph 20.7 mph N/A   Clear
11:55 AM 78.8 °F - 69.8 °F 74% 29.83 in 10.0 mi South 17.3 mph 24.2 mph N/A   Mostly Cloudy
12:55 PM 80.6 °F 83.9 °F 69.8 °F 70% 29.82 in 10.0 mi South 13.8 mph 24.2 mph N/A   Mostly Cloudy
1:15 PM 80.6 °F 83.9 °F 69.8 °F 70% 29.80 in 8.0 mi South 16.1 mph 23.0 mph N/A   Clear
1:35 PM 80.6 °F 83.9 °F 69.8 °F 70% 29.80 in 10.0 mi South 13.8 mph 27.6 mph N/A   Clear
1:55 PM 80.6 °F 84.6 °F 71.6 °F 74% 29.80 in 9.0 mi South 18.4 mph 24.2 mph N/A   Clear
2:15 PM 78.8 °F - 69.8 °F 74% 29.79 in 9.0 mi South 17.3 mph 26.5 mph N/A   Scattered Clouds
2:35 PM 78.8 °F - 69.8 °F 74% 29.78 in 10.0 mi South 16.1 mph 21.9 mph N/A   Overcast
2:55 PM 78.8 °F - 71.6 °F 78% 29.78 in 10.0 mi South 15.0 mph 25.3 mph N/A   Overcast
3:15 PM 77.0 °F - 69.8 °F 78% 29.77 in 9.0 mi South 15.0 mph 23.0 mph N/A   Overcast
3:36 PM 75.2 °F - 69.8 °F 83% 29.76 in 10.0 mi South 16.1 mph 20.7 mph N/A   Overcast
3:55 PM 78.8 °F - 71.6 °F 78% 29.75 in 10.0 mi South 12.7 mph 25.3 mph N/A   Overcast
4:55 PM 77.0 °F - 71.6 °F 83% 29.73 in 10.0 mi South 15.0 mph 23.0 mph N/A   Overcast
5:15 PM 77.0 °F - 71.6 °F 83% 29.72 in 10.0 mi South 17.3 mph 25.3 mph N/A   Overcast
5:35 PM 75.2 °F - 71.6 °F 89% 29.71 in 10.0 mi South 12.7 mph 24.2 mph N/A   Overcast
5:55 PM 75.2 °F - 71.6 °F 89% 29.70 in 10.0 mi South 17.3 mph 26.5 mph N/A   Overcast
6:15 PM 75.2 °F - 71.6 °F 89% 29.70 in 10.0 mi South 16.1 mph 23.0 mph N/A   Overcast
6:35 PM 75.2 °F - 71.6 °F 89% 29.69 in 9.0 mi South 17.3 mph 24.2 mph N/A   Overcast
6:55 PM 73.4 °F - 71.6 °F 94% 29.69 in 10.0 mi SSW 15.0 mph 27.6 mph N/A   Overcast
7:15 PM 73.4 °F - 71.6 °F 94% 29.70 in 10.0 mi SSW 17.3 mph 23.0 mph N/A   Overcast
7:35 PM 75.2 °F - 71.6 °F 89% 29.70 in 10.0 mi South 16.1 mph 24.2 mph N/A   Overcast
7:55 PM 73.4 °F - 71.6 °F 94% 29.70 in 10.0 mi South 16.1 mph 21.9 mph N/A   Overcast
8:15 PM 73.4 °F - 71.6 °F 94% 29.70 in 10.0 mi South 13.8 mph 25.3 mph N/A   Overcast
8:35 PM 73.4 °F - 71.6 °F 94% 29.71 in 10.0 mi South 15.0 mph 24.2 mph N/A   Overcast
8:55 PM 73.4 °F - 71.6 °F 94% 29.70 in 10.0 mi South 16.1 mph 26.5 mph N/A   Overcast
9:15 PM 73.4 °F - 71.6 °F 94% 29.70 in 10.0 mi South 16.1 mph 25.3 mph N/A   Overcast
9:35 PM 73.4 °F - 71.6 °F 94% 29.69 in 10.0 mi South 17.3 mph 24.2 mph N/A   Mostly Cloudy
9:55 PM 73.4 °F - 71.6 °F 94% 29.68 in 9.0 mi South 17.3 mph 24.2 mph N/A   Overcast
10:15 PM 73.4 °F - 71.6 °F 94% 29.68 in 8.0 mi SSW 18.4 mph 24.2 mph N/A   Overcast
10:35 PM 73.4 °F - 71.6 °F 94% 29.68 in 10.0 mi SSW 16.1 mph 23.0 mph N/A   Overcast
10:55 PM 73.4 °F - 71.6 °F 94% 29.69 in 9.0 mi SSW 15.0 mph 23.0 mph N/A   Overcast
11:15 PM 73.4 °F - 71.6 °F 94% 29.69 in 9.0 mi SSW 16.1 mph 20.7 mph N/A   Overcast
11:35 PM 73.4 °F - 69.8 °F 88% 29.70 in 7.0 mi SW 15.0 mph 27.6 mph 0.02 in   Overcast
11:55 PM 71.6 °F - 69.8 °F 94% 29.70 in 5.0 mi SW 15.0 mph 24.2 mph 0.10 in   Mostly Cloudy